Time,TemperatureF,DewpointF,PressureIn,WindDirection,WindDirectionDegrees,WindSpeedMPH,WindSpeedGustMPH,Humidity,HourlyPrecipIn,Conditions,Clouds,dailyrainin,SoftwareType,DateUTC
2013-10-14 00:23:00,59.0,-99.9,-100.00,North,-999,-999.0,-999.0,-999,0.00,,,0.00,,2013-10-14 05:23:00,
2013-10-14 00:34:00,59.0,-99.9,-100.00,North,-999,-999.0,-999.0,-999,0.00,,,0.00,,2013-10-14 05:34:00,
2013-10-14 00:43:00,59.0,-99.9,-100.00,North,-999,-999.0,-999.0,-999,0.00,,,0.00,,2013-10-14 05:43:00,
2013-10-14 01:22:00,60.0,-99.9,-100.00,North,-999,-999.0,-999.0,-999,0.00,,,0.00,,2013-10-14 06:22:00,
2013-10-14 01:32:00,60.0,-99.9,-100.00,North,-999,-999.0,-999.0,-999,0.00,,,0.00,,2013-10-14 06:32:00,
2013-10-14 01:42:00,60.0,-99.9,-100.00,North,-999,-999.0,-999.0,-999,0.00,,,0.00,,2013-10-14 06:42:00,
2013-10-14 02:22:00,59.0,-99.9,-100.00,North,-999,-999.0,-999.0,-999,0.00,,,0.00,,2013-10-14 07:22:00,
2013-10-14 02:32:00,59.0,-99.9,-100.00,North,-999,-999.0,-999.0,-999,0.00,,,0.00,,2013-10-14 07:32:00,
2013-10-14 02:42:00,59.0,-99.9,-100.00,North,-999,-999.0,-999.0,-999,0.00,,,0.00,,2013-10-14 07:42:00,
2013-10-14 03:22:00,58.0,-99.9,-100.00,North,-999,-999.0,-999.0,-999,0.00,,,0.00,,2013-10-14 08:22:00,
2013-10-14 03:32:00,58.0,-99.9,-100.00,North,-999,-999.0,-999.0,-999,0.00,,,0.00,,2013-10-14 08:32:00,
2013-10-14 03:42:00,58.0,-99.9,-100.00,North,-999,-999.0,-999.0,-999,0.00,,,0.00,,2013-10-14 08:42:00,
2013-10-14 04:22:00,58.0,-99.9,-100.00,North,-999,-999.0,-999.0,-999,0.00,,,-99.99,,2013-10-14 09:22:00,
2013-10-14 04:33:00,58.0,-99.9,-100.00,North,-999,-999.0,-999.0,-999,0.00,,,-99.99,,2013-10-14 09:33:00,
2013-10-14 04:43:00,58.0,-99.9,-100.00,North,-999,-999.0,-999.0,-999,0.00,,,-99.99,,2013-10-14 09:43:00,
2013-10-14 05:23:00,57.0,-99.9,-100.00,North,-999,-999.0,-999.0,-999,0.00,,,0.00,,2013-10-14 10:23:00,
2013-10-14 05:32:00,57.0,-99.9,-100.00,North,-999,-999.0,-999.0,-999,0.00,,,0.00,,2013-10-14 10:32:00,
2013-10-14 05:43:00,57.0,-99.9,-100.00,North,-999,-999.0,-999.0,-999,0.00,,,0.00,,2013-10-14 10:43:00,
2013-10-14 06:22:00,57.0,-99.9,-100.00,North,-999,-999.0,-999.0,-999,0.00,,,0.00,,2013-10-14 11:22:00,
2013-10-14 06:33:00,57.0,-99.9,-100.00,North,-999,-999.0,-999.0,-999,0.00,,,0.00,,2013-10-14 11:33:00,
2013-10-14 06:42:00,57.0,-99.9,-100.00,North,-999,-999.0,-999.0,-999,0.00,,,0.00,,2013-10-14 11:42:00,
2013-10-14 07:23:00,57.0,-99.9,-100.00,North,-999,-999.0,-999.0,-999,0.00,,,0.00,,2013-10-14 12:23:00,
2013-10-14 07:32:00,57.0,-99.9,-100.00,North,-999,-999.0,-999.0,-999,0.00,,,0.00,,2013-10-14 12:32:00,
2013-10-14 07:42:00,57.0,-99.9,-100.00,North,-999,-999.0,-999.0,-999,0.00,,,0.00,,2013-10-14 12:42:00,
2013-10-14 08:22:00,58.0,-99.9,-100.00,North,-999,-999.0,-999.0,-999,0.00,,,0.00,,2013-10-14 13:22:00,
2013-10-14 08:32:00,58.0,-99.9,-100.00,North,-999,-999.0,-999.0,-999,0.00,,,0.00,,2013-10-14 13:32:00,
2013-10-14 08:42:00,58.0,-99.9,-100.00,North,-999,-999.0,-999.0,-999,0.00,,,0.00,,2013-10-14 13:42:00,
2013-10-14 09:22:00,59.0,-99.9,-100.00,North,-999,-999.0,-999.0,-999,0.00,,,0.00,,2013-10-14 14:22:00,
2013-10-14 09:32:00,59.0,-99.9,-100.00,North,-999,-999.0,-999.0,-999,0.00,,,0.00,,2013-10-14 14:32:00,
2013-10-14 09:42:00,59.0,-99.9,-100.00,North,-999,-999.0,-999.0,-999,0.00,,,0.00,,2013-10-14 14:42:00,
2013-10-14 10:22:00,61.0,-99.9,-100.00,North,-999,-999.0,-999.0,-999,0.03,,,0.03,,2013-10-14 15:22:00,
2013-10-14 10:33:00,61.0,-99.9,-100.00,North,-999,-999.0,-999.0,-999,0.03,,,0.03,,2013-10-14 15:33:00,
2013-10-14 10:44:00,61.0,-99.9,-100.00,North,-999,-999.0,-999.0,-999,0.03,,,0.03,,2013-10-14 15:44:00,
2013-10-14 11:23:00,63.0,-99.9,-100.00,North,-999,-999.0,-999.0,-999,0.02,,,0.05,,2013-10-14 16:23:00,
2013-10-14 11:33:00,63.0,-99.9,-100.00,North,-999,-999.0,-999.0,-999,0.02,,,0.05,,2013-10-14 16:33:00,
2013-10-14 11:43:00,63.0,-99.9,-100.00,North,-999,-999.0,-999.0,-999,0.02,,,0.05,,2013-10-14 16:43:00,
2013-10-14 12:23:00,63.0,-99.9,-100.00,North,-999,-999.0,-999.0,-999,0.16,,,0.21,,2013-10-14 17:23:00,
2013-10-14 12:34:00,63.0,-99.9,-100.00,North,-999,-999.0,-999.0,-999,0.16,,,0.21,,2013-10-14 17:34:00,
2013-10-14 12:42:00,63.0,-99.9,-100.00,North,-999,-999.0,-999.0,-999,0.16,,,0.21,,2013-10-14 17:42:00,
2013-10-14 13:22:00,68.0,-99.9,-100.00,North,-999,-999.0,-999.0,-999,0.01,,,0.22,,2013-10-14 18:22:00,
2013-10-14 13:32:00,68.0,-99.9,-100.00,North,-999,-999.0,-999.0,-999,0.01,,,0.22,,2013-10-14 18:32:00,
2013-10-14 13:43:00,68.0,-99.9,-100.00,North,-999,-999.0,-999.0,-999,0.01,,,0.22,,2013-10-14 18:43:00,
2013-10-14 14:23:00,58.0,-99.9,-100.00,North,-999,-999.0,-999.0,-999,0.07,,,0.29,,2013-10-14 19:23:00,
2013-10-14 14:32:00,58.0,-99.9,-100.00,North,-999,-999.0,-999.0,-999,0.07,,,0.29,,2013-10-14 19:32:00,
2013-10-14 14:42:00,58.0,-99.9,-100.00,North,-999,-999.0,-999.0,-999,0.07,,,0.29,,2013-10-14 19:42:00,
2013-10-14 15:22:00,58.0,-99.9,-100.00,North,-999,-999.0,-999.0,-999,0.09,,,0.38,,2013-10-14 20:22:00,
2013-10-14 15:32:00,58.0,-99.9,-100.00,North,-999,-999.0,-999.0,-999,0.09,,,0.38,,2013-10-14 20:32:00,
2013-10-14 15:43:00,58.0,-99.9,-100.00,North,-999,-999.0,-999.0,-999,0.09,,,0.38,,2013-10-14 20:43:00,
2013-10-14 16:22:00,68.0,-99.9,-100.00,North,-999,-999.0,-999.0,-999,-99.99,,,0.38,,2013-10-14 21:22:00,
2013-10-14 16:34:00,68.0,-99.9,-100.00,North,-999,-999.0,-999.0,-999,-99.99,,,0.38,,2013-10-14 21:34:00,
2013-10-14 16:44:00,68.0,-99.9,-100.00,North,-999,-999.0,-999.0,-999,-99.99,,,0.38,,2013-10-14 21:44:00,
2013-10-14 17:24:00,66.0,-99.9,-100.00,North,-999,-999.0,-999.0,-999,0.00,,,0.38,,2013-10-14 22:24:00,
2013-10-14 17:33:00,66.0,-99.9,-100.00,North,-999,-999.0,-999.0,-999,0.00,,,0.38,,2013-10-14 22:33:00,
2013-10-14 17:44:00,66.0,-99.9,-100.00,North,-999,-999.0,-999.0,-999,0.00,,,0.38,,2013-10-14 22:44:00,
2013-10-14 18:22:00,62.0,-99.9,-100.00,North,-999,-999.0,-999.0,-999,0.00,,,0.38,,2013-10-14 23:22:00,
2013-10-14 18:34:00,62.0,-99.9,-100.00,North,-999,-999.0,-999.0,-999,0.00,,,0.38,,2013-10-14 23:34:00,
2013-10-14 18:42:00,62.0,-99.9,-100.00,North,-999,-999.0,-999.0,-999,0.00,,,0.38,,2013-10-14 23:42:00,
2013-10-14 19:22:00,55.0,-99.9,-100.00,North,-999,-999.0,-999.0,-999,0.00,,,0.38,,2013-10-15 00:22:00,
2013-10-14 19:32:00,55.0,-99.9,-100.00,North,-999,-999.0,-999.0,-999,0.00,,,0.38,,2013-10-15 00:32:00,
2013-10-14 19:43:00,55.0,-99.9,-100.00,North,-999,-999.0,-999.0,-999,0.00,,,0.38,,2013-10-15 00:43:00,
2013-10-14 20:22:00,50.0,-99.9,-100.00,North,-999,-999.0,-999.0,-999,0.00,,,-99.99,,2013-10-15 01:22:00,
2013-10-14 20:32:00,50.0,-99.9,-100.00,North,-999,-999.0,-999.0,-999,0.00,,,-99.99,,2013-10-15 01:32:00,
2013-10-14 20:43:00,50.0,-99.9,-100.00,North,-999,-999.0,-999.0,-999,0.00,,,-99.99,,2013-10-15 01:43:00,
2013-10-14 21:22:00,47.0,-99.9,-100.00,North,-999,-999.0,-999.0,-999,0.00,,,0.38,,2013-10-15 02:22:00,
2013-10-14 21:32:00,47.0,-99.9,-100.00,North,-999,-999.0,-999.0,-999,0.00,,,0.38,,2013-10-15 02:32:00,
2013-10-14 21:42:00,47.0,-99.9,-100.00,North,-999,-999.0,-999.0,-999,0.00,,,0.38,,2013-10-15 02:42:00,
2013-10-14 22:23:00,46.0,-99.9,-100.00,North,-999,-999.0,-999.0,-999,0.00,,,0.38,,2013-10-15 03:23:00,
2013-10-14 22:34:00,46.0,-99.9,-100.00,North,-999,-999.0,-999.0,-999,0.00,,,0.38,,2013-10-15 03:34:00,
2013-10-14 22:44:00,46.0,-99.9,-100.00,North,-999,-999.0,-999.0,-999,0.00,,,0.38,,2013-10-15 03:44:00,
2013-10-14 23:24:00,45.0,-99.9,-100.00,North,-999,-999.0,-999.0,-999,0.00,,,0.38,,2013-10-15 04:24:00,
2013-10-14 23:34:00,45.0,-99.9,-100.00,North,-999,-999.0,-999.0,-999,0.00,,,0.38,,2013-10-15 04:34:00,
2013-10-14 23:44:00,45.0,-99.9,-100.00,North,-999,-999.0,-999.0,-999,0.00,,,0.38,,2013-10-15 04:44:00,